• Join FlightAware (Why Join?)
  • Login
  • US Flag 
04:37AM EST


 

Airport Tracker/Info


-or-


 

Live Flight TrackerFlight Track Log ✈ UAL3767 ✈ 09-Jul-2014 ✈ KPWM - KORD

Flight Track Log - Related Links

Times and Time Zones

All times are in EDT time to prevent confusion due to time zone crossing. See the UAL3767 flight status page for this flight to view local times or setup timezone preferences in your user account.

Time Position Orientation Groundspeed Altitude Reporting Facility
EDT Latitude Longitude Course Direction KTS MPH feet Rate Location/Type
06:45PM 43.6572 -70.4083 243° Southwest 175 201 2,900  Level Boston Center
06:46PM 43.6644 -70.4911 277° West 200 230 5,800 2,177 Climbing Boston Center
06:47PM 43.6447 -70.5753 252° West 238 274 7,400 2,160 Climbing Boston Center
06:48PM 43.6097 -70.6639 241° Southwest 259 298 10,300 2,508 Climbing Boston Center
06:49PM 43.5669 -70.7550 237° Southwest 263 303 12,500 1,742 Climbing Boston Center
06:50PM 43.7079 -70.8402 243° Southwest  Level FlightAware Approximate
06:50PM 43.5225 -70.8533 238° Southwest 300 345 13,900  Level Boston Center
06:51PM 43.5092 -70.9731 261° West 320 368 15,900 1,934 Climbing Boston Center
06:52PM 43.5039 -71.1081 267° West 326 375 17,800 1,742 Climbing Boston Center
06:53PM 43.4983 -71.2344 267° West 341 392 19,500 1,440 Climbing Boston Center
06:54PM 43.4917 -71.3692 266° West 350 403 20,800 1,377 Climbing Boston Center
06:55PM 43.4850 -71.5058 266° West 355 409 22,300 1,438 Climbing Boston Center
06:56PM 43.4786 -71.6442 266° West 362 417 23,700 1,306 Climbing Boston Center
06:57PM 43.4722 -71.7853 266° West 365 420 25,000 1,248 Climbing Boston Center
06:58PM 43.4636 -71.9247 265° West 366 421 26,300 1,377 Climbing Boston Center
06:59PM 43.4553 -72.0953 266° West 370 426 27,800 1,190 Climbing Boston Center
07:00PM 43.4475 -72.2375 266° West 373 429 28,700 1,065 Climbing Boston Center
07:01PM 43.4403 -72.3806 266° West 374 430 30,000 1,210 Climbing Boston Center
07:02PM 43.4322 -72.5197 265° West 372 428 31,200 843 Climbing Boston Center
07:03PM 43.4239 -72.6575 265° West 368 423 31,700 432 Climbing Boston Center
07:04PM 43.4156 -72.8011 265° West 375 432 32,100 145 Climbing Boston Center
07:05PM 43.4083 -72.9289 266° West 344 396 32,000 150 Descending Boston Center
07:06PM 43.3992 -73.0778 265° West 329 379 32,400 435 Climbing Boston Center
07:07PM 43.3903 -73.2064 265° West 334 384 32,900 581 Climbing Boston Center
07:08PM 43.3811 -73.3397 265° West 345 397 33,600 774 Climbing Boston Center
07:09PM 43.3733 -73.4642 265° West 347 399 34,500 968 Climbing Boston Center
07:10PM 43.3636 -73.6197 265° West 347 399 35,600 744 Climbing Boston Center
07:11PM 43.3544 -73.7497 265° West 344 396 36,000 197 Climbing Boston Center
07:12PM 43.3453 -73.8828 265° West 345 397 36,000  Level Boston Center
07:13PM 43.3353 -74.0203 264° West 358 412 36,000  Level Boston Center
07:14PM 43.3253 -74.1644 265° West 360 414 36,000  Level Boston Center
07:15PM 43.3153 -74.3039 264° West 365 420 36,000  Level Boston Center
07:16PM 43.3044 -74.4458 264° West 370 426 36,000  Level Boston Center
07:17PM 43.2944 -74.5886 265° West 376 433 36,000  Level Boston Center
07:18PM 43.2831 -74.7319 264° West 376 433 36,000  Level Boston Center
07:19PM 43.2700 -74.9031 264° West 377 434 36,000  Level Boston Center
07:21PM 43.2597 -75.0456 264° West 377 434 36,000  Level Boston Center
07:22PM 43.2472 -75.1881 263° West 377 434 36,000  Level Boston Center
07:23PM 43.2347 -75.3414 264° West 377 434 36,000  Level Boston Center
07:24PM 43.2225 -75.4839 263° West 377 434 36,000  Level Boston Center
07:25PM 43.2106 -75.6256 263° West 376 433 36,000  Level Boston Center
07:26PM 43.1986 -75.7656 263° West 372 428 36,000  Level Boston Center
07:27PM 43.1869 -75.9047 263° West 372 428 36,000  Level Boston Center
07:28PM 43.1742 -76.0417 263° West 367 422 36,000  Level Boston Center
07:29PM 43.1628 -76.1794 264° West 366 421 36,000  Level Boston Center
07:30PM 43.1614 -76.3472 269° West 366 421 36,000  Level Boston Center
07:31PM 43.1606 -76.4858 270° West 367 422 36,000  Level Boston Center
07:32PM 43.1603 -76.6267 270° West 368 423 36,000  Level Boston Center
07:33PM 43.1600 -76.7656 270° West 368 423 36,000  Level Boston Center
07:34PM 43.1589 -76.9050 269° West 368 423 36,000  Level Boston Center
07:35PM 43.1578 -77.0442 269° West 368 423 36,000  Level Boston Center
07:36PM 43.1575 -77.1831 270° West 368 423 36,000  Level Boston Center
07:37PM 43.1561 -77.3494 269° West 368 423 36,000  Level Boston Center
07:38PM 43.1542 -77.4889 269° West 368 423 36,000  Level Boston Center
07:39PM 43.1522 -77.6581 269° West 369 425 36,000  Level Cleveland Center
07:40PM 43.1508 -77.8267 269° West 371 427 36,000  Level Cleveland Center
07:41PM 43.1481 -77.9683 269° West 372 428 36,000  Level Cleveland Center
07:42PM 43.1464 -78.1094 269° West 372 428 36,000  Level Cleveland Center
07:43PM 43.1431 -78.2508 268° West 373 429 36,000  Level Cleveland Center
07:44PM 43.1403 -78.3922 269° West 373 429 36,000  Level Cleveland Center
07:45PM 43.1372 -78.5347 268° West 373 429 36,000  Level Cleveland Center
07:46PM 43.1317 -78.7078 268° West 382 440 36,000  Level Cleveland Center
07:48PM 43.1275 -78.8503 268° West 380 437 36,000  Level Cleveland Center
07:49PM 43.1239 -78.9936 268° West 380 437 36,000  Level Cleveland Center
07:49PM 43.1200 -79.1083 267° West 379 436 36,000  Level Cleveland Center
07:50PM 43.1144 -79.2528 267° West 380 437 36,000  Level Cleveland Center
07:51PM 43.1103 -79.3978 268° West 382 440 36,000 -484 Level Cleveland Center
07:52PM 43.1036 -79.5750 267° West 392 451 35,000 -968 Descending Cleveland Center
07:54PM 43.0981 -79.7264 267° West 395 455 34,000 -484 Descending Cleveland Center
07:55PM 43.0911 -79.8761 266° West 396 456 34,000  Level Cleveland Center
07:55PM 43.0833 -80.0000 265° West 400 460 34,000  Level Toronto Center
07:56PM 43.0667 -80.1500 261° West 400 460 34,000  Level Toronto Center
07:57PM 43.0667 -80.3000 270° West 400 460 34,000  Level Toronto Center
07:58PM 43.0667 -80.4500 270° West 400 460 34,000  Level Toronto Center
07:59PM 43.0500 -80.5833 260° West 400 460 34,000  Level Toronto Center
08:00PM 43.0500 -80.7500 270° West 390 449 34,000  Level Toronto Center
08:01PM 43.0333 -80.9167 262° West 390 449 34,000  Level Toronto Center
08:02PM 43.0167 -81.0500 260° West 390 449 34,000  Level Toronto Center
08:03PM 43.0167 -81.2000 270° West 390 449 34,000  Level Toronto Center
08:04PM 43.0167 -81.3500 270° West 390 449 34,000  Level Toronto Center
08:05PM 43.0167 -81.5000 270° West 390 449 34,000  Level Toronto Center
08:06PM 43.0167 -81.6333 270° West 390 449 34,000  Level Toronto Center
08:07PM 43.0167 -81.8000 270° West 390 449 34,000  Level Toronto Center
08:08PM 43.0000 -81.9333 260° West 390 449 34,000  Level Toronto Center
08:09PM 43.0000 -82.1000 270° West 390 449 34,000  Level Toronto Center
08:10PM 43.0000 -82.2333 270° West 390 449 34,000  Level Toronto Center
08:11PM 43.0000 -82.3833 270° West 390 449 34,000  Level Toronto Center
08:12PM 43.0000 -82.5333 270° West 390 449 34,000  Level Toronto Center
08:13PM 43.0044 -82.6533 273° West 393 452 34,000  Level Cleveland Center
08:14PM 42.9992 -82.8008 267° West 393 452 34,000  Level Cleveland Center
08:15PM 42.9944 -82.9489 268° West 393 452 34,000  Level Cleveland Center
08:16PM 42.9903 -83.0933 268° West 390 449 34,000  Level Cleveland Center
08:17PM 42.9850 -83.2389 267° West 388 447 34,000  Level Cleveland Center
08:18PM 42.9797 -83.4147 268° West 388 447 34,000 -384 Level Cleveland Center
08:19PM 42.9744 -83.5603 267° West 388 447 33,200 -629 Descending Cleveland Center
08:20PM 42.9686 -83.7053 267° West 388 447 32,700 -484 Descending Cleveland Center
08:21PM 42.9569 -83.8514 264° West 388 447 32,200 -339 Descending Cleveland Center
08:22PM 42.9419 -83.9994 262° West 393 452 32,000 -97 Descending Cleveland Center
08:24PM 42.9250 -84.1739 263° West 392 451 32,000  Level Cleveland Center
08:25PM 42.9119 -84.3164 263° West 386 444 32,000  Level Cleveland Center
08:26PM 42.8961 -84.4669 262° West 382 440 32,000  Level Cleveland Center
08:27PM 42.8811 -84.6172 262° West 397 457 32,000  Level Cleveland Center
08:28PM 42.8647 -84.7633 261° West 393 452 32,000  Level Cleveland Center
08:29PM 42.8503 -84.9111 262° West 393 452 32,000  Level Cleveland Center
08:30PM 42.8342 -85.0569 261° West 393 452 32,000  Level Cleveland Center
08:31PM 42.8189 -85.2014 262° West 390 449 32,000 -564 Level Chicago Center
08:32PM 42.8028 -85.3475 262° West 387 445 30,900 -1,500 Descending Chicago Center
08:33PM 42.7853 -85.5036 261° West 408 470 28,900 -1,984 Descending Chicago Center
08:34PM 42.7586 -85.6514 256° West 404 465 26,800 -2,160 Descending Chicago Center
08:35PM 42.7261 -85.8278 256° West 401 461 24,400 -2,112 Descending Chicago Center
08:36PM 42.7011 -85.9711 257° West 393 452 22,400 -1,935 Descending Chicago Center
08:37PM 42.6753 -86.1106 256° West 383 441 20,400 -1,161 Descending Chicago Center
08:38PM 42.6497 -86.2467 256° West 376 433 20,000 -726 Descending Chicago Center
08:39PM 42.6239 -86.3808 255° West 370 426 18,900 -1,306 Descending Chicago Center
08:40PM 42.5997 -86.5122 256° West 364 419 17,300 -1,597 Descending Chicago Center
08:41PM 42.5753 -86.6422 256° West 358 412 15,600 -1,733 Descending Chicago Center
08:43PM 42.5089 -86.9203 251° West 352 405 11,900 -1,668 Descending Chicago Center
08:44PM 42.4742 -87.0406 249° West 344 396 10,400 -919 Descending Chicago Center
08:45PM 42.4428 -87.1558 250° West 329 379 10,000 -629 Descending Chicago Center
08:46PM 42.3950 -87.2283 228° Southwest 280 322 9,100 -532 Descending Chicago Center
08:47PM 42.3039 -87.2636 196° South 289 333 8,900 -629 Descending Chicago Center
08:48PM 42.2206 -87.2933 195° South 291 335 7,800 -1,016 Descending Chicago Center
08:49PM 42.1442 -87.3169 193° South 285 328 6,800 -968 Descending Chicago Center
08:50PM 42.0625 -87.3253 184° South 281 323 5,800 -816 Descending Chicago Center
08:51PM 41.9847 -87.3258 180° South 284 327 5,100 -384 Descending Chicago Center
08:52PM 41.9797 -87.4225 266° West 253 291 5,000 -48 Descending Chicago Center
08:53PM 41.9847 -87.5200 274° West 260 299 5,000 -48 Level Chicago Center
08:54PM 41.9814 -87.6114 267° West 244 281 4,900 -774 Descending Chicago Center
08:55PM 41.9831 -87.6975 272° West 220 253 3,400 -1,210 Descending Chicago Center
08:57PM 41.9825 -87.7747 269° West 212 244 2,400 -919 Descending Chicago Center
08:58PM 41.9833 -87.8375 271° West 154 177 1,500 -774 Descending Chicago Center
08:59PM 41.9831 -87.8819 270° West 145 167 800 -677 Descending Chicago Center
09:01PM 41.9667 -87.9000 217° Southwest  Level FlightAware Approximate